TimeEEST,TemperatureF,Dew PointF,Humidity,Sea Level PressureIn,VisibilityMPH,Wind Direction,Wind SpeedMPH,Gust SpeedMPH,PrecipitationIn,Events,Conditions,WindDirDegrees,DateUTC
12:20 AM,68.0,44.6,43,30.01,6.2,North,3.5,-,N/A,,Mostly Cloudy,350,2012-10-06 21:20:00
12:50 AM,66.2,44.6,46,30.01,6.2,Variable,2.3,-,N/A,,Mostly Cloudy,0,2012-10-06 21:50:00
1:20 AM,62.6,42.8,48,30.01,6.2,NE,6.9,-,N/A,,Scattered Clouds,40,2012-10-06 22:20:00
1:50 AM,64.4,42.8,45,30.01,6.2,ENE,5.8,-,N/A,,Scattered Clouds,60,2012-10-06 22:50:00
2:20 AM,62.6,44.6,52,30.01,6.2,Variable,3.5,-,N/A,Thunderstorm,Scattered Clouds,0,2012-10-06 23:20:00
3:20 AM,60.8,44.6,55,30.01,6.2,SSW,4.6,-,N/A,,Partly Cloudy,210,2012-10-07 00:20:00
3:50 AM,60.8,42.8,52,30.01,-9999.0,SSE,5.8,-,N/A,,Clear,160,2012-10-07 00:50:00
4:20 AM,59.0,42.8,55,30.01,6.2,ENE,5.8,-,N/A,,Partly Cloudy,60,2012-10-07 01:20:00
4:50 AM,60.8,41.0,48,30.01,6.2,Variable,4.6,-,N/A,,Scattered Clouds,0,2012-10-07 01:50:00
5:20 AM,64.4,41.0,42,30.01,6.2,Variable,2.3,-,N/A,,Scattered Clouds,0,2012-10-07 02:20:00
5:50 AM,62.6,42.8,48,30.06,6.2,SW,13.8,-,N/A,Thunderstorm,Thunderstorm,230,2012-10-07 02:50:00
6:20 AM,60.8,42.8,52,30.06,6.2,South,4.6,-,N/A,,Scattered Clouds,170,2012-10-07 03:20:00
6:50 AM,68.0,44.6,43,30.04,6.2,NE,6.9,-,N/A,,Mostly Cloudy,50,2012-10-07 03:50:00
7:20 AM,69.8,44.6,40,30.09,6.2,Variable,6.9,-,N/A,,Mostly Cloudy,0,2012-10-07 04:20:00
7:50 AM,68.0,46.4,46,30.09,6.2,NW,8.1,-,N/A,Thunderstorm,Thunderstorm,310,2012-10-07 04:50:00
8:20 AM,73.4,44.6,36,30.01,6.2,NNW,18.4,-,N/A,Thunderstorm,Thunderstorm,330,2012-10-07 05:20:00
8:50 AM,75.2,46.4,36,30.04,6.2,North,13.8,-,N/A,,Scattered Clouds,10,2012-10-07 05:50:00
9:20 AM,75.2,44.6,34,30.06,6.2,NE,9.2,-,N/A,Rain-Thunderstorm,Light Thunderstorms and Rain,40,2012-10-07 06:20:00
9:50 AM,75.2,46.4,36,30.04,6.2,ENE,18.4,-,N/A,Rain-Thunderstorm,Light Thunderstorms and Rain,60,2012-10-07 06:50:00
10:20 AM,75.2,46.4,36,30.04,6.2,North,13.8,-,N/A,,Mostly Cloudy,360,2012-10-07 07:20:00
10:50 AM,77.0,44.6,32,30.04,6.2,NNE,11.5,-,N/A,,Mostly Cloudy,30,2012-10-07 07:50:00
11:20 AM,80.6,44.6,28,30.04,6.2,NNE,11.5,-,N/A,,Mostly Cloudy,30,2012-10-07 08:20:00
11:50 AM,82.4,42.8,25,30.01,6.2,ENE,13.8,-,N/A,,Mostly Cloudy,70,2012-10-07 08:50:00
12:20 PM,84.2,41.0,22,30.01,6.2,ENE,11.5,-,N/A,,Mostly Cloudy,60,2012-10-07 09:20:00
12:50 PM,84.2,39.2,20,29.98,6.2,ENE,11.5,25.3,N/A,,Scattered Clouds,70,2012-10-07 09:50:00
1:20 PM,86.0,41.0,20,29.98,6.2,East,13.8,-,N/A,,Scattered Clouds,80,2012-10-07 10:20:00
1:50 PM,86.0,39.2,19,29.95,6.2,ENE,11.5,-,N/A,,Scattered Clouds,70,2012-10-07 10:50:00
2:20 PM,87.8,39.2,18,29.95,6.2,ENE,12.7,-,N/A,,Partly Cloudy,70,2012-10-07 11:20:00
2:50 PM,87.8,39.2,18,29.95,6.2,ESE,10.4,-,N/A,,Partly Cloudy,110,2012-10-07 11:50:00
3:20 PM,87.8,37.4,17,29.95,6.2,Variable,6.9,-,N/A,,Scattered Clouds,0,2012-10-07 12:20:00
3:50 PM,87.8,39.2,18,29.92,6.2,ENE,8.1,-,N/A,,Scattered Clouds,60,2012-10-07 12:50:00
4:20 PM,87.8,39.2,18,29.92,6.2,ENE,10.4,-,N/A,,Scattered Clouds,60,2012-10-07 13:20:00
4:50 PM,86.0,39.2,19,29.92,6.2,ENE,9.2,-,N/A,,Mostly Cloudy,70,2012-10-07 13:50:00
5:20 PM,86.0,37.4,18,29.92,3.7,SSW,16.1,27.6,N/A,,Widespread Dust,210,2012-10-07 14:20:00
5:50 PM,84.2,37.4,19,29.92,3.1,South,8.1,-,N/A,,Mostly Cloudy,190,2012-10-07 14:50:00
6:20 PM,82.4,39.2,21,29.92,3.7,South,6.9,-,N/A,,Mostly Cloudy,180,2012-10-07 15:20:00
6:50 PM,80.6,39.2,23,29.95,3.7,South,6.9,-,N/A,,Mostly Cloudy,170,2012-10-07 15:50:00
7:20 PM,80.6,37.4,21,29.95,3.7,South,6.9,-,N/A,,Mostly Cloudy,180,2012-10-07 16:20:00
7:50 PM,77.0,41.0,28,29.95,3.7,West,4.6,-,N/A,,Mostly Cloudy,280,2012-10-07 16:50:00
8:20 PM,77.0,37.4,24,29.95,3.7,Variable,2.3,-,N/A,,Mostly Cloudy,0,2012-10-07 17:20:00
8:50 PM,77.0,41.0,28,29.98,5.0,SE,6.9,-,N/A,,Mostly Cloudy,130,2012-10-07 17:50:00
9:20 PM,77.0,37.4,24,29.98,5.0,ESE,4.6,-,N/A,,Mostly Cloudy,110,2012-10-07 18:20:00
9:50 PM,71.6,41.0,33,29.98,6.2,NNE,4.6,-,N/A,,Scattered Clouds,20,2012-10-07 18:50:00
10:20 PM,77.0,39.2,26,29.95,6.2,ESE,11.5,-,N/A,,Partly Cloudy,110,2012-10-07 19:20:00
10:50 PM,77.0,41.0,28,29.95,6.2,East,5.8,-,N/A,,Scattered Clouds,100,2012-10-07 19:50:00
11:20 PM,71.6,46.4,41,29.95,6.2,NNE,4.6,-,N/A,Thunderstorm,Thunderstorm,30,2012-10-07 20:20:00
11:50 PM,69.8,51.8,53,29.95,6.2,ENE,10.4,-,N/A,,Mostly Cloudy,60,2012-10-07 20:50:00